STARLINK-32577, 62044

Orbit data source: Space-Track

STARLINK-32577, 62044 is a payload satellite owned by SpaceX/Seattle (US) in LEO that was launched on Thu, 21 Nov 2024 UTC via an FALCON 9 launch vehicle from the Air Force Eastern Test Range (AFETR). Payload-class satellites include a variety of spacecraft equipped with specific instruments for various scientific and technological missions. These include communications satellites like Starlink; space stations such as the ISS; scientific satellites like the Hubble; Earth observation satellites from companies like Planet Labs, Umbra, and HawkEye 360; GPS; miniature CubeSats for education and research; and military/defense satellites.

Loading next visibility...
Identifier
62044, 2024-216N
Orbit
LEO
Country
Flag of USUS
Related business
Manufacturer
SpaceX/Seattle
Mission
Operational Commercial Communications
Bus & Motor
STARLINK V2M, Unknown motor
Mass
730 kg wet, ~700 kg dry
Launch date (UTC)
2024-11-21 (10 months ago)
Launch vehicle
FALCON 9
Launch site
Air Force Eastern Test Range (AFETR)
Object type
Payload
Rocket body
Debris
Shape & HBR
Box + 2 Pan, 14.5 m
Radar Cross Section
36.964 m², Large (>1 m²)

Expand to show TLE details & history
Last TLE update: 17 hours ago

TLE from 17 hours ago
0 STARLINK-32577
1 62044U 24216N   25258.12697674  .00042383  00000-0  15401-2 0  9998
2 62044  42.9969 174.8958 0001326 280.7189  79.3513 15.27595926 46959
Epoch: 2025-09-15T03:02Z
TLE epoch observation values (Epoch: 2025-09-15T03:02:50.79Z)
Latitude
-0.00003°
Longitude
134.84805°
Altitude
482.608 km
Speed
7.626 km/s
True Right ascension
11h 39m 34s
True Declination
0° 00' 00"
Sunlit
Object was in daylight at epoch
Visualization orbit readout
Latitude
Unknown
Longitude
Unknown
Altitude
Unknown
Speed
Unknown
Apparent Right ascension
Unknown
Apparent Declination
Unknown
Sunlit
N/A
Visualization observer readout
Local Sidereal Time
12:30:47
Azimuth
Unknown
Elevation
Unknown
Doppler factor
Unknown
Orbital elements
Apogee altitude
485.857 km
Perigee altitude
484.037 km
Semi-major axis
6,863.084 km
Eccentricity
0.00013
Inclination
42.9969°
RAAN
174.8958°
Arg. of periapsis
280.7189°
True anomaly
79.36623°
Mean anomaly
79.3513°
Eccentric anomaly
79.35877°
Mean motion
3.81737 °/min
Orbital period
94.31 mins
BSTAR
0.0015401
Loading maneuver chart data...
Computing Atmospheric mass density...
Loading historical data...
Loading historical data...
Loading historical data...
Loading historical data...
Loading historical data...
Loading historical data...
Loading historical data...

Documentation

Showing up to 5 results
|